Helicity
90 149 125 88 95 27 13 25 32 18 72 77 59 4 33 3 -12 -7 21 38 103 193 247 321 307 228 135 120 125 207 249 142 160 203 242 245 241 253 332 405 472 541 569 473
165 96 72 41 38 45 43 32 11 24 35 31 22 36 9 -21 16 5 12 286 373 388 400 352 228 128 98 80 64 70 92 103 185 137 247 307 351 336 324 393 447 528 537 518
108 141 26 76 86 69 58 34 30 38 39 66 71 10 16 12 98 345 481 445 393 377 357 322 212 148 53 125 145 145 94 110 75 177 163 217 299 311 353 390 404 442 511 555
143 77 120 193 83 77 47 52 28 34 81 41 83 25 79 36 143 453 525 425 400 349 275 222 145 92 84 28 123 111 101 69 89 118 279 206 250 334 352 393 432 428 453 477
251 266 278 208 53 101 70 96 118 120 92 51 47 66 78 2 309 404 389 392 306 269 256 218 179 124 60 119 98 92 76 17 61 19 81 133 206 168 244 276 329 376 436 428
165 228 243 84 75 97 65 55 81 111 139 109 82 126 96 15 348 292 273 204 122 87 77 111 121 117 183 163 97 61 41 60 115 79 97 102 99 120 213 176 354 364 428 429
299 266 140 62 137 106 200 209 228 156 241 255 102 90 234 165 141 108 98 140 193 143 184 172 134 125 137 107 151 182 173 153 99 93 66 106 97 73 137 129 181 230 480 475
206 161 116 186 203 202 185 190 403 279 256 143 73 225 136 139 55 96 104 115 177 257 210 202 152 156 125 139 153 153 207 198 211 155 111 105 88 84 74 76 12 30 311 480
196 152 93 149 237 234 242 220 153 180 256 331 362 336 214 81 297 373 393 444 435 340 200 153 146 138 151 160 179 132 108 101 135 107 98 70 101 102 77 75 51 -21 55 537
178 248 241 346 269 110 94 172 276 476 534 522 387 259 299 417 420 383 367 378 318 272 178 100 128 154 164 105 120 102 100 105 91 90 82 91 81 101 92 138 107 114 45 503
224 420 433 504 495 394 465 503 491 430 518 604 504 364 475 531 352 363 236 163 153 81 81 150 153 96 93 102 125 201 200 231 163 61 67 57 58 135 67 103 123 97 185 509
610 665 660 447 432 320 239 397 579 760 793 723 618 467 419 285 392 309 189 120 98 171 166 88 99 85 91 101 111 109 76 85 77 55 75 105 65 87 54 69 136 -31 213 568
727 707 901 829 721 640 645 590 676 719 632 492 511 486 164 276 206 134 141 160 114 87 104 118 114 126 97 122 99 67 64 28 54 78 73 47 17 66 127 77 86 217 210 410
567 743 771 883 834 624 667 663 551 583 533 416 358 190 170 123 118 105 97 71 100 142 138 140 122 129 160 128 70 67 72 80 63 68 51 -1 -87 16 148 135 197 282 372 545
835 908 957 921 782 629 419 324 284 288 228 349 219 142 107 101 60 92 46 113 160 147 124 128 141 154 100 79 101 84 95 84 71 69 35 -44 -116 68 129 154 215 215 303 451
1245 1163 943 715 570 453 400 282 187 129 86 89 54 63 60 43 57 82 134 186 167 153 92 115 133 54 80 96 95 80 105 105 80 85 5 -75 -111 22 124 141 251 181 285 351
990 825 696 534 277 269 364 238 105 94 83 108 113 100 80 99 131 167 197 167 147 109 167 109 83 85 65 80 65 88 84 86 77 37 -41 -97 -150 90 170 151 218 189 243 298
497 436 414 443 368 482 190 128 87 52 41 83 92 79 71 149 163 155 172 92 193 180 75 78 78 61 78 73 84 177 95 49 34 -32 -48 -71 -60 176 268 231 285 262 312 322
265 375 444 401 263 266 106 89 74 123 111 121 137 120 117 123 205 162 47 129 182 92 79 77 76 70 27 52 162 130 104 34 -18 -62 -14 -13 -57 177 204 200 198 212 282 333
221 193 330 233 289 220 142 307 368 356 215 94 105 97 151 204 179 98 119 125 82 64 72 63 57 78 44 84 74 121 81 40 -45 -76 -19 -48 -3 132 161 180 192 213 257 304
253 178 133 128 153 125 170 160 211 242 200 184 146 127 164 135 102 99 68 45 60 70 68 51 71 8 71 33 53 94 63 21 -55 -53 -37 -39 60 -23 173 156 170 208 217 230
204 180 159 130 140 118 130 137 161 107 104 119 169 109 93 90 102 103 53 70 62 59 43 45 -15 -29 19 10 46 51 28 12 -32 -32 -42 -52 13 117 127 141 130 155 147 142
158 163 196 160 156 237 175 159 155 105 89 79 86 37 53 73 69 76 84 100 77 54 26 1 -60 14 8 9 38 -39 -37 5 -24 -44 -42 13 61 96 127 172 136 116 117 123
77 63 150 139 131 74 72 70 55 51 48 36 33 34 49 83 97 121 124 105 74 32 7 -30 -0 39 19 9 9 35 36 8 -37 -20 -0 27 51 107 143 201 111 81 84 94
104 120 122 146 135 138 98 51 60 40 51 86 97 98 100 97 91 100 87 95 59 10 -1 -13 49 33 -5 -24 -6 9 -31 -40 -24 -73 -7 23 56 90 125 136 113 57 56 85
166 184 178 131 66 66 62 52 58 58 81 98 93 88 103 97 94 103 100 76 50 7 -28 -8 21 -23 -66 -66 -28 -20 -29 -41 -38 -43 -88 -37 37 71 48 56 81 56 67 91
Wind_Speed
40 47 54 52 48 51 56 59 60 60 67 70 78 84 78 74 72 69 46 52 39 30 30 39 44 49 55 59 62 63 64 52 39 44 41 44 47 49 50 48 49 48 45 43
44 57 53 47 50 45 45 50 52 62 75 75 80 78 78 87 50 37 48 30 27 30 37 44 48 51 57 61 62 63 67 69 67 55 53 49 50 54 55 57 58 54 55 51
57 52 45 48 52 47 45 49 59 72 82 82 82 91 81 35 24 23 24 25 30 35 41 48 53 59 65 69 66 67 69 74 76 76 61 60 60 58 60 61 65 68 67 65
68 54 50 42 47 53 53 52 63 71 73 74 68 80 64 41 36 23 26 31 36 41 47 53 60 67 69 71 72 74 76 76 74 75 75 72 70 75 72 68 67 67 68 71
61 53 64 67 61 50 70 60 58 66 69 79 60 59 55 40 18 24 28 33 40 44 52 58 63 68 72 73 75 73 76 79 75 77 76 80 84 86 81 77 77 74 72 70
71 67 69 71 61 66 53 51 60 65 64 75 63 52 64 33 12 23 29 36 43 48 53 60 66 74 78 79 75 76 77 77 80 83 84 87 90 94 96 96 88 86 83 78
70 65 62 58 57 52 43 42 57 62 57 70 51 50 42 22 19 20 30 40 48 56 64 72 82 80 78 81 85 86 87 87 81 82 88 93 95 95 98 99 101 98 91 89
65 77 58 48 55 51 48 44 53 69 67 69 52 53 44 22 18 24 36 47 58 69 74 78 80 82 83 85 85 89 91 95 91 87 92 94 101 102 100 104 106 106 107 99
55 66 46 53 49 48 48 59 46 71 77 77 62 60 59 36 32 44 52 61 68 72 78 82 82 84 88 86 89 87 90 88 88 96 100 104 101 106 107 106 108 114 107 104
57 63 45 32 30 43 52 50 51 53 68 73 69 67 66 53 55 56 62 69 75 82 86 87 84 86 89 92 94 95 91 88 90 93 100 101 103 97 102 107 108 115 105 96
50 50 43 35 48 45 47 53 48 53 61 75 84 71 45 54 60 70 75 77 84 89 87 88 89 92 95 100 94 95 89 91 96 99 100 104 101 99 116 109 109 125 91 85
46 52 55 53 44 53 51 54 51 67 69 66 74 80 58 62 71 80 85 86 86 86 91 90 96 95 95 90 94 97 98 105 110 112 102 100 104 107 116 111 94 123 68 78
45 51 57 60 68 59 54 51 47 55 62 75 81 84 45 62 84 85 84 87 88 86 87 91 94 96 95 96 101 107 113 118 116 106 104 106 108 108 99 103 107 90 63 55
46 57 70 75 69 54 63 54 54 57 73 78 86 96 83 89 86 85 82 81 81 87 93 97 95 92 94 102 106 115 122 119 114 109 107 104 109 110 88 60 83 69 42 40
54 71 64 60 54 48 53 57 57 66 67 77 76 83 84 77 79 81 78 81 85 88 87 84 87 89 97 103 104 108 104 108 106 105 99 100 106 94 80 62 66 60 45 37
52 62 55 65 59 59 65 59 59 59 61 70 73 81 70 75 78 73 78 81 83 84 83 81 85 94 100 98 103 100 108 104 93 103 94 96 99 92 55 48 53 50 42 38
55 54 58 70 56 62 79 69 66 66 64 67 81 75 68 70 72 74 77 75 81 77 77 85 90 92 95 95 108 105 111 90 78 99 89 91 81 75 46 34 50 40 35 33
45 43 47 55 46 79 62 41 44 56 58 57 63 61 60 65 69 68 62 71 70 76 84 89 86 94 88 101 101 101 97 83 84 86 87 84 83 48 39 34 32 30 26 15
31 40 49 58 62 58 47 38 46 49 54 48 58 57 56 59 59 60 54 61 71 81 83 80 84 79 101 94 99 99 84 76 86 83 85 82 56 43 23 19 20 23 17 10
31 34 47 49 62 71 42 34 39 43 65 46 59 53 47 48 67 63 65 72 76 71 72 79 82 85 89 93 96 88 73 68 81 81 80 76 67 35 30 20 25 29 17 7
46 45 55 52 58 56 38 31 31 57 54 44 44 40 43 54 50 57 66 70 65 72 78 79 76 85 83 92 94 81 76 81 84 82 75 71 56 46 21 21 28 34 37 28
44 42 49 50 62 73 38 39 51 48 48 46 42 44 45 48 51 55 58 64 70 76 77 81 74 84 84 92 86 82 79 82 81 77 71 59 53 34 18 14 19 24 33 33
40 35 38 39 47 36 36 41 42 46 47 41 41 38 46 49 52 58 66 63 66 71 80 78 85 79 87 87 80 82 81 79 74 68 59 51 46 38 27 12 15 17 19 27
31 29 39 39 42 43 42 44 47 41 41 40 44 48 54 58 62 63 62 69 68 80 74 80 77 80 85 83 77 71 71 69 63 55 49 44 40 32 20 18 5 23 31 25
32 30 40 48 43 43 46 47 45 43 41 48 55 58 56 57 61 65 61 67 73 70 71 72 67 76 77 77 72 68 62 58 60 47 41 39 35 31 23 16 12 5 8 14
30 36 44 51 34 36 41 39 45 48 50 55 59 60 57 57 57 57 61 75 68 66 70 63 64 62 38 46 46 55 52 52 54 50 40 35 31 24 15 9 8 6 8 8
Wind_Direction
281 282 279 286 285 287 291 294 295 298 293 295 288 275 285 291 293 297 306 306 315 326 338 339 337 335 331 332 329 325 321 325 309 301 296 290 284 281 277 273 270 264 257 249
282 276 285 285 288 282 288 291 292 293 286 288 284 282 287 280 274 300 302 320 333 333 330 329 330 332 331 331 330 327 322 319 322 308 298 295 290 286 281 277 273 266 261 255
271 285 283 278 281 281 282 285 291 292 287 283 286 284 291 308 343 342 340 337 333 329 328 327 326 325 326 325 326 325 325 320 315 317 307 298 296 292 286 281 276 271 265 260
276 271 274 283 276 284 278 286 287 288 293 294 295 298 297 302 319 320 323 325 326 328 327 327 325 325 324 323 323 321 319 320 319 316 315 305 294 291 289 283 278 275 268 262
265 271 276 274 272 273 278 286 288 294 296 297 296 299 307 302 267 297 315 325 329 330 329 329 329 329 329 327 324 324 323 319 320 318 314 310 307 298 292 288 281 275 271 266
268 274 273 275 276 273 277 281 288 290 294 289 293 292 315 294 249 297 314 319 322 326 328 329 330 329 326 326 324 322 321 320 319 317 314 311 306 303 301 295 284 277 272 268
266 263 265 263 272 275 276 275 284 286 282 288 301 291 287 336 320 302 307 315 320 322 324 325 323 323 325 325 323 324 324 320 318 316 317 314 310 306 302 298 294 282 272 267
263 267 243 252 255 264 264 257 274 284 285 291 290 288 298 327 324 314 315 315 317 320 324 323 324 324 325 324 325 323 323 322 322 318 314 312 311 308 304 300 296 290 273 265
269 268 276 248 255 250 262 256 266 284 288 291 290 291 294 319 328 315 315 318 319 321 321 322 324 324 325 327 326 324 322 321 320 317 316 313 309 308 305 304 300 296 278 263
268 274 271 259 243 257 255 278 264 275 285 284 289 291 292 302 306 313 313 316 318 319 320 320 323 325 327 326 323 321 319 318 318 317 315 313 311 309 310 306 302 301 283 259
253 270 263 258 261 258 265 272 268 276 279 286 291 294 306 308 311 312 314 316 317 317 318 320 323 324 324 324 325 327 327 325 320 317 316 313 313 313 304 306 306 301 286 249
251 266 259 255 277 276 263 265 266 274 281 283 288 284 302 311 315 315 313 315 316 317 318 320 322 324 325 325 326 324 322 320 317 315 314 314 315 312 307 308 314 301 280 253
240 262 264 266 276 274 268 271 275 277 283 278 282 290 311 311 314 315 314 316 316 319 322 324 325 325 326 327 326 324 320 316 313 313 312 313 316 314 315 311 313 310 279 252
251 264 259 260 275 273 264 267 271 275 278 283 279 290 294 303 309 312 315 317 320 323 324 324 325 328 329 328 326 323 319 316 313 310 309 311 309 310 318 322 324 307 282 262
262 264 266 272 273 280 274 268 269 273 278 282 291 289 298 305 308 313 314 319 322 323 326 328 329 330 329 327 326 325 325 321 316 313 309 308 302 318 319 329 330 307 277 265
267 272 272 270 273 276 276 277 276 276 279 282 287 290 298 302 308 313 319 323 322 324 328 331 332 330 329 329 330 329 325 324 321 310 305 301 299 310 331 336 334 303 278 261
267 266 269 272 273 277 278 275 276 280 282 286 289 298 306 307 312 318 321 323 323 328 332 332 330 330 329 331 328 324 327 329 326 300 295 291 286 317 336 346 331 302 277 263
255 261 269 275 274 276 287 298 288 284 286 289 294 299 306 312 315 319 327 324 331 332 331 328 329 328 329 325 326 328 330 330 324 293 290 289 296 338 347 3 4 315 288 277
248 259 271 273 270 290 291 291 292 294 295 297 300 305 310 316 320 320 329 334 330 328 328 328 329 330 322 324 330 331 334 333 302 289 294 290 269 338 356 22 36 1 310 291
254 259 273 271 278 283 296 303 314 317 299 305 304 305 313 323 315 320 327 328 327 327 328 328 328 329 324 329 332 335 335 333 292 292 290 286 282 348 348 43 63 78 55 335
251 258 263 270 279 290 296 311 314 299 308 324 324 320 318 317 321 326 327 328 330 330 330 330 329 325 330 333 334 338 332 318 295 292 286 286 303 272 7 47 82 85 90 83
252 258 266 273 278 283 299 296 291 305 313 322 321 323 322 324 326 326 326 329 330 333 332 327 327 326 333 335 339 340 331 313 301 292 284 272 275 330 45 28 53 70 87 88
261 267 273 278 288 306 308 306 313 315 314 313 315 316 320 318 318 322 325 329 331 332 323 314 316 329 335 338 343 333 329 318 304 294 286 283 289 302 313 51 64 69 76 90
269 261 287 287 295 297 305 310 313 314 312 313 313 314 317 318 320 323 326 327 327 313 306 309 316 330 335 340 343 344 346 339 314 296 289 289 288 307 329 314 320 102 108 99
272 276 287 291 298 309 312 313 312 314 317 318 315 315 317 317 318 321 324 325 318 299 306 306 333 331 330 334 336 343 331 331 357 319 303 299 295 298 305 313 279 63 45 90
284 286 285 295 309 307 312 317 316 316 315 314 314 313 313 315 317 322 323 311 296 298 296 294 322 308 290 303 310 324 326 333 344 347 325 311 297 318 318 327 308 338 18 31